sat.trackr.live / text

‹ back to catalog

STARLINK-37346

NORAD 69149 · 2026-111B

PAYLOAD ACTIVE UNKNOWN

§ Identity

Operator
Country
US
Launch date
2026-05-21
Launch site
AFETR
Launch vehicle
Mass (kg)
RCS (m²)

Purposes: comms

External: N2YO · Heavens-Above · Gunter

§ Orbital elements

Epoch: 2026-09-19T18:42:41.927616Z

Period
93.85 min
Inclination
53.1600°
Eccentricity
0.0000757
Mean motion
15.34401499 rev/d
Perigee alt
462.2 km
Apogee alt
463.2 km
Semi-major
6,840.8 km
B*
5.5956e-4
RAAN
69.4281°
Arg perigee
207.0196°
Mean anomaly
153.0767°
Rev number
1,878

§ Raw data

STARLINK-373461 69149U 26111B   26262.77965194  .00018577  00000+0  55956-3 0  99962 69149  53.1600  69.4281 0000757 207.0196 153.0767 15.34401499 18783

JSON: /api/v1/satellites/69149 · /tle

For live sub-satellite position, see the globe view (requires WebGL).

§ Visibility from observer

Set your observer location to see the next 7 days of passes ≥ 10°. The values pass through the URL so the page stays shareable.

No JS? Fill the form by hand. The geolocation button needs JavaScript.